Hourly Data Report for May 18, 2017

All times are specified in Local Standard Time (LST). Add 1 hour to adjust for Daylight Saving Time where and when it is observed.

KELOWNA UBCO
BRITISH COLUMBIA

49°56'26.700" N
119°24'00.760" W
456.00 m
1123996
71644
VKU

Download Data

Hourly Data (May 2017)
Hourly Data Report for May 18, 2017
Temp Definition
°C
Dew Point Temp Definition
°C
Rel Hum Definition
%
Wind Dir Definition
10's deg

Wind Spd Definition
km/h
Visibility Definition
km
Stn Press Definition
kPa
Hmdx Definition


Wind Chill Definition


Weather Definition


TIME
00:00 9.4 6.2 80       96.55     LegendNANA
01:00 8.6 6.5 87       96.58     LegendNANA
02:00 7.6 5.6 88       96.59     LegendNANA
03:00 7.1 5.7 91       96.62     LegendNANA
04:00 6.1 5.0 92       96.62     LegendNANA
05:00 6.0 4.6 91       96.68     LegendNANA
06:00 7.8 5.8 87       96.72     LegendNANA
07:00 10.8 5.6 70       96.72     LegendNANA
08:00 12.6 5.9 64       96.72     LegendNANA
09:00 13.7 5.6 58       96.68     LegendNANA
10:00 14.9 5.2 52       96.65     LegendNANA
11:00 15.8 6.0 52       96.58     LegendNANA
12:00 17.7 6.8 49       96.54     LegendNANA
13:00 18.3 5.8 44       96.48     LegendNANA
14:00 19.2 6.5 43       96.42     LegendNANA
15:00 20.6 5.9 38       96.36     LegendNANA
16:00 21.1 3.9 32       96.32     LegendNANA
17:00 19.4 5.3 40       96.31     LegendNANA
18:00 17.8 5.3 44       96.33     LegendNANA
19:00 16.3 8.2 59       96.35     LegendNANA
20:00 16.7 6.4 51       96.40     LegendNANA
21:00 15.9 4.9 48       96.46     LegendNANA
22:00 13.6 6.7 63       96.51     LegendNANA
23:00 12.0 7.9 76       96.55     LegendNANA

Notes on Data Quality.

Legend

  • E = Estimated
  • M = Missing
  • NA = Not Available
  • ‡ = Partner data that is not subject to review by the National Climate Archives
Date modified: